[[{"header":{"parameterUnit":"m.s-1","parameterCategory":1,"la1":30.2991,"la2":30.254,"lo1":-89.0895,"lo2":-89.0444,"dy":0.0017,"dx":0.0017,"nx":28,"ny":28,"refTime":"2023-09-08T09:00:00:Z","depth":0,"parameterNumber":2,"parameterNumberName":"U-component_of_WINDS"},"data":[0,0,0,0,0,0,0,0,0,0,0,0,0,0,0,0,0,0,0,0,0,0,0,0,0,0,0,0,0,0,0,0,0,0,0,0,0,0,0,0,0,0,0,0,0,0,0,0,0,0,0,0,0,0,0,0,0,0,-0.4696,-0.4695,0,-0.4567,-0.4565,-0.4564,-0.4531,-0.4532,-0.4533,-0.4534,-0.4396,-0.4391,-0.4387,0,0,0,0,0,0,0,0,0,0,0,0,0,-0.4912,-0.4908,-0.4697,-0.4695,-0.4693,-0.4567,-0.4565,-0.4563,-0.4531,-0.4532,-0.4533,-0.4534,-0.4397,-0.4392,-0.4386,0,0,0,0,0,0,0,0,0,0,0,0,0,-0.4804,-0.4907,-0.4697,-0.4662,-0.4658,-0.4567,-0.4565,-0.4563,-0.4531,-0.4532,-0.4533,-0.4535,-0.4399,-0.4392,-0.4386,-0.4319,0,0,-0.4365,-0.4362,0,0,0,0,0,0,0,0,-0.481,-0.4796,-0.4669,-0.4664,-0.4659,-0.4567,-0.459,-0.4481,-0.4531,-0.4579,-0.4534,-0.4535,-0.4451,-0.444,-0.4413,-0.4312,-0.4306,-0.4364,-0.436,-0.4358,-0.4356,0,0,0,0,0,0,0,-0.4817,-0.4801,-0.4645,-0.4667,-0.4661,-0.4651,-0.4638,-0.4569,-0.4509,-0.4575,-0.4572,-0.4558,-0.4449,-0.4419,-0.4409,-0.4304,-0.4365,-0.4359,-0.4355,-0.4352,-0.4141,-0.414,0,0,0,0,0,0,-0.4832,-0.4808,-0.4649,-0.4641,-0.4739,-0.4647,-0.4631,-0.4595,-0.451,-0.4498,-0.4557,-0.4557,-0.443,-0.4417,-0.4404,-0.432,-0.4358,-0.4351,-0.4347,-0.4143,-0.4141,-0.4139,0,0,0,0,0,0,-0.4836,-0.4818,-0.4654,-0.4724,-0.4702,-0.4642,-0.4601,-0.4592,-0.4562,-0.4496,-0.4485,-0.4538,-0.4431,-0.4414,-0.434,-0.4315,-0.4348,-0.4342,-0.4144,-0.4142,-0.414,-0.4151,0,0,0,0,0,0,-0.4843,-0.482,-0.4795,-0.4723,-0.4699,-0.4594,-0.46,-0.4588,-0.4552,-0.455,-0.4476,-0.4465,-0.443,-0.4351,-0.4334,-0.4306,-0.4337,-0.4146,-0.4143,-0.4141,-0.4152,-0.4149,-0.4146,0,0,0,0,0,-0.4851,-0.4802,-0.4794,-0.4775,-0.4666,-0.4593,-0.4578,-0.4541,-0.455,-0.4523,-0.4481,-0.4467,-0.432,-0.4343,-0.4324,-0.4294,-0.4148,-0.4144,-0.4141,-0.4154,-0.415,-0.4146,0,0,0,0,0,0,-0.487,-0.4792,-0.4782,-0.4709,-0.4658,-0.4587,-0.4553,-0.4538,-0.4482,-0.4483,-0.4438,-0.4422,-0.4351,-0.4315,-0.4342,-0.4224,-0.4234,-0.4226,-0.425,-0.4246,-0.4243,-0.4253,-0.4331,0,0,0,0,0,-0.4867,-0.4815,-0.4749,-0.4691,-0.4666,-0.4614,-0.458,-0.4557,-0.4501,-0.4479,-0.4431,-0.4376,-0.4317,-0.428,-0.4222,-0.4147,-0.413,-0.4117,-0.4114,-0.4111,-0.4105,-0.4062,-0.4055,-0.4127,-0.4127,-0.4127,0,0,-0.4857,-0.4808,-0.4778,-0.4693,-0.4651,-0.4597,-0.4596,-0.4539,-0.4498,-0.4469,-0.4398,-0.4361,-0.4296,-0.4222,-0.4186,-0.4189,-0.4081,-0.4107,-0.4106,-0.41,-0.4058,-0.4051,-0.4045,-0.4125,-0.4125,-0.4126,0,0,-0.4813,-0.4771,-0.4719,-0.4676,-0.4613,-0.4579,-0.4566,-0.4498,-0.4472,-0.44,-0.4378,-0.4327,-0.4228,-0.4183,-0.4147,-0.4086,-0.4071,-0.4068,-0.4052,-0.401,-0.4005,-0.3999,-0.3977,-0.3969,-0.4063,-0.4063,-0.4063,0,-0.4809,-0.4729,-0.4693,-0.4637,-0.46,-0.4574,-0.4519,-0.4479,-0.4399,-0.4373,-0.4378,-0.4253,-0.4208,-0.4122,-0.4107,-0.4079,-0.4062,-0.4076,-0.4009,-0.4003,-0.3997,-0.3976,-0.3967,-0.4063,-0.4063,-0.4063,-0.4063,0,-0.4727,-0.4671,-0.4636,-0.4562,-0.452,-0.4465,-0.4419,-0.4382,-0.4361,-0.4326,-0.4252,-0.4198,-0.4128,-0.4106,-0.4085,-0.4017,-0.4021,-0.4018,-0.4027,-0.3991,-0.397,-0.3961,-0.4063,-0.4063,-0.4063,-0.4063,0,0,-0.4691,-0.4598,-0.4586,-0.4551,-0.4479,-0.4435,-0.4378,-0.4312,-0.428,-0.4226,-0.4176,-0.4093,-0.409,-0.4049,-0.4022,-0.3986,-0.3941,-0.3987,-0.3985,-0.398,-0.3861,-0.3864,-0.3855,-0.3931,-0.3929,-0.3928,-0.3866,0,-0.4638,-0.4537,-0.4503,-0.4419,-0.4367,-0.4341,-0.4291,-0.4241,-0.4207,-0.4156,-0.4117,-0.4059,-0.4059,-0.4034,-0.3997,-0.3954,-0.3916,-0.3958,-0.3882,-0.388,-0.3899,-0.3844,-0.3846,-0.3791,-0.3858,-0.3857,-0.3855,0,-0.4562,-0.4509,-0.442,-0.4355,-0.4331,-0.4287,-0.4224,-0.4176,-0.4118,-0.4095,-0.4051,-0.4027,-0.3965,-0.3978,-0.3891,-0.3921,-0.3887,-0.3861,-0.3858,-0.3849,-0.3865,-0.3832,-0.3773,-0.3764,-0.3842,-0.3843,-0.3844,0,-0.4544,-0.445,-0.4384,-0.4356,-0.4278,-0.4248,-0.4214,-0.4157,-0.4119,-0.4063,-0.4038,-0.3975,-0.3941,-0.3892,-0.3851,-0.3865,-0.3767,-0.3777,-0.3745,-0.3746,-0.3725,-0.3727,-0.3659,-0.3705,-0.3706,-0.3706,-0.3706,0,-0.4488,-0.4434,-0.4375,-0.4335,-0.4274,-0.4235,-0.4175,-0.4139,-0.4089,-0.404,-0.4013,-0.3967,-0.3917,-0.3864,-0.3832,-0.3764,-0.3749,-0.3728,-0.372,-0.373,-0.3732,-0.3707,-0.3709,-0.3704,-0.3704,-0.3704,-0.3705,0,-0.4457,-0.4416,-0.4343,-0.4276,-0.4257,-0.4215,-0.4157,-0.4116,-0.4081,-0.4019,-0.4002,-0.3947,-0.3883,-0.3838,-0.3756,-0.3734,-0.3661,-0.3654,-0.3681,-0.3677,-0.3648,-0.3651,-0.356,-0.3546,-0.3603,-0.3602,-0.3602,0,-0.4424,-0.4382,-0.4311,-0.4277,-0.4244,-0.4189,-0.4151,-0.411,-0.4072,-0.4002,-0.3969,-0.3905,-0.3851,-0.375,-0.3701,-0.3638,-0.3628,-0.36,-0.3618,-0.3629,-0.3626,-0.3629,-0.3624,-0.3598,-0.3597,-0.3597,-0.3597,0,-0.4368,-0.435,-0.4297,-0.4237,-0.4193,-0.4143,-0.4093,-0.4066,-0.4016,-0.3974,-0.391,-0.3868,-0.3785,-0.372,-0.3652,-0.3615,-0.3597,-0.3592,-0.3581,-0.359,-0.3608,-0.3597,-0.3673,-0.3594,-0.3594,-0.3594,-0.3594,-0.3594,-0.4334,-0.4296,-0.424,-0.4182,-0.4141,-0.4094,-0.4053,-0.4013,-0.3959,-0.389,-0.3868,-0.3801,-0.3743,-0.3651,-0.3612,-0.3558,-0.356,-0.3544,-0.354,-0.3537,-0.3537,-0.3618,-0.3546,-0.3546,-0.3546,-0.3546,-0.3546,0,-0.4277,-0.424,-0.4187,-0.4119,-0.4073,-0.4062,-0.4006,-0.3967,-0.3909,-0.3858,-0.3805,-0.3731,-0.3668,-0.3615,-0.3549,-0.3516,-0.3506,-0.35,-0.3502,-0.3493,-0.3539,-0.3555,-0.3509,-0.3509,-0.3509,-0.3509,-0.351,-0.351,-0.4242,-0.4177,-0.4152,-0.4065,-0.4028,-0.3964,-0.3932,-0.3889,-0.3848,-0.3767,-0.3715,-0.3681,-0.3628,-0.3559,-0.35,-0.3486,-0.3462,-0.3458,-0.3442,-0.3486,-0.349,-0.3494,-0.3509,-0.3454,-0.3454,-0.34,-0.3399,-0.3399]},{"header":{"parameterUnit":"m.s-1","parameterCategory":1,"la1":30.2991,"la2":30.254,"lo1":-89.0895,"lo2":-89.0444,"dy":0.0017,"dx":0.0017,"nx":28,"ny":28,"refTime":"2023-09-08T09:00:00:Z","depth":0,"parameterNumber":3,"parameterNumberName":"V-component_of_WINDS"},"data":[0,0,0,0,0,0,0,0,0,0,0,0,0,0,0,0,0,0,0,0,0,0,0,0,0,0,0,0,0,0,0,0,0,0,0,0,0,0,0,0,0,0,0,0,0,0,0,0,0,0,0,0,0,0,0,0,0,0,0.9013,0.9012,0,0.886,0.8858,0.8857,0.8734,0.8732,0.8731,0.873,0.8567,0.8564,0.8561,0,0,0,0,0,0,0,0,0,0,0,0,0,0.9194,0.9191,0.9014,0.9012,0.901,0.8861,0.8858,0.8856,0.8734,0.8732,0.8731,0.8729,0.8568,0.8564,0.8561,0,0,0,0,0,0,0,0,0,0,0,0,0,0.9085,0.919,0.9014,0.8931,0.8922,0.8861,0.8858,0.8856,0.8734,0.8732,0.8731,0.8729,0.8569,0.8565,0.856,0.8567,0,0,0.8545,0.8543,0,0,0,0,0,0,0,0,0.9092,0.9079,0.8945,0.8936,0.8926,0.8814,0.8862,0.8759,0.8735,0.8805,0.873,0.8728,0.865,0.8639,0.8614,0.856,0.8553,0.8545,0.8542,0.854,0.8539,0,0,0,0,0,0,0,0.9099,0.9085,0.8953,0.8943,0.8932,0.8899,0.8882,0.8842,0.874,0.8799,0.879,0.8774,0.8645,0.8619,0.8609,0.855,0.8545,0.8541,0.8538,0.8536,0.8493,0.8495,0,0,0,0,0,0,0.9121,0.9092,0.8957,0.8948,0.9006,0.8897,0.8878,0.8852,0.874,0.8721,0.8775,0.8768,0.8628,0.8615,0.8603,0.8604,0.854,0.8536,0.8533,0.8491,0.8493,0.8495,0,0,0,0,0,0,0.9125,0.911,0.8964,0.9017,0.8996,0.8896,0.8868,0.885,0.8824,0.8722,0.8703,0.8768,0.8626,0.861,0.8577,0.8596,0.8533,0.8529,0.8489,0.8492,0.8494,0.8606,0,0,0,0,0,0,0.9131,0.9112,0.9115,0.9018,0.8994,0.8943,0.8869,0.8848,0.8817,0.8806,0.871,0.8692,0.8623,0.8585,0.8573,0.8589,0.8525,0.8487,0.849,0.8494,0.86,0.8612,0.8622,0,0,0,0,0,0.9137,0.9152,0.9116,0.9101,0.8996,0.8944,0.893,0.8852,0.8819,0.882,0.8755,0.8695,0.8597,0.8583,0.8568,0.8583,0.8485,0.8489,0.8493,0.8595,0.861,0.8622,0,0,0,0,0,0,0.9251,0.9137,0.9097,0.9081,0.9024,0.8924,0.8923,0.887,0.8819,0.8811,0.8715,0.8694,0.8672,0.8623,0.8611,0.8583,0.8533,0.8534,0.8616,0.8629,0.864,0.8652,0.8521,0,0,0,0,0,0.9275,0.9244,0.9145,0.9141,0.9114,0.9024,0.8998,0.8944,0.8879,0.8854,0.8786,0.8724,0.8679,0.8651,0.8604,0.8593,0.8569,0.8595,0.8606,0.8616,0.8618,0.8607,0.8617,0.8508,0.8508,0.8508,0,0,0.9323,0.9257,0.9243,0.9162,0.9111,0.9079,0.9004,0.8974,0.8949,0.8848,0.8814,0.8762,0.8687,0.8665,0.8652,0.8624,0.8643,0.8621,0.8629,0.8626,0.8612,0.8623,0.8632,0.8511,0.851,0.851,0,0,0.9394,0.9341,0.9331,0.9282,0.9207,0.9147,0.9145,0.9053,0.9015,0.898,0.8904,0.8871,0.8796,0.8745,0.8709,0.8761,0.8704,0.8748,0.8806,0.8797,0.8806,0.8813,0.8831,0.8838,0.8751,0.8751,0.8751,0,0.9462,0.9414,0.9332,0.9307,0.9273,0.9183,0.9171,0.9126,0.9039,0.9016,0.8987,0.889,0.8833,0.8798,0.8811,0.8785,0.8778,0.8759,0.8811,0.8818,0.8823,0.8839,0.8846,0.8757,0.8756,0.8755,0.8755,0,0.9501,0.9468,0.9469,0.9389,0.9355,0.9337,0.9251,0.9225,0.9174,0.9116,0.908,0.9009,0.8945,0.8933,0.8881,0.889,0.8875,0.883,0.8778,0.8841,0.8854,0.886,0.8765,0.8763,0.8761,0.876,0,0,0.9639,0.9515,0.9517,0.9479,0.939,0.9362,0.9338,0.9278,0.9258,0.9201,0.9178,0.9116,0.9074,0.9033,0.8975,0.8967,0.9012,0.8922,0.8919,0.8941,0.9016,0.9051,0.906,0.8974,0.8975,0.8975,0.9023,0,0.9695,0.9651,0.9577,0.9556,0.9524,0.9438,0.9417,0.9359,0.9304,0.9267,0.9206,0.9164,0.9112,0.9087,0.9075,0.9009,0.9026,0.9005,0.895,0.8949,0.8972,0.9067,0.9103,0.9151,0.9027,0.9028,0.9029,0,0.9755,0.9705,0.9682,0.9594,0.9578,0.9561,0.95,0.9467,0.9398,0.9359,0.9314,0.9251,0.9219,0.9173,0.9127,0.9115,0.9087,0.9052,0.9051,0.9043,0.8993,0.9061,0.9165,0.9172,0.9036,0.9036,0.9035,0,0.9859,0.9785,0.9761,0.9731,0.9629,0.9619,0.9575,0.9505,0.9474,0.9419,0.9397,0.934,0.9308,0.9264,0.9185,0.9159,0.9148,0.9095,0.9113,0.9115,0.9115,0.9116,0.9216,0.9098,0.9098,0.9098,0.9098,0,0.9929,0.9918,0.9806,0.9791,0.9776,0.969,0.9676,0.9624,0.9562,0.9534,0.9455,0.943,0.9328,0.9291,0.9229,0.9201,0.9187,0.9153,0.9136,0.916,0.9164,0.9141,0.9135,0.91,0.9099,0.9099,0.9099,0,1.0042,0.9966,0.9935,0.9841,0.9817,0.9809,0.9727,0.9709,0.965,0.9616,0.9603,0.9509,0.9461,0.9379,0.9307,0.9265,0.9248,0.922,0.9272,0.9262,0.9286,0.9285,0.9374,0.9381,0.926,0.9261,0.9262,0,1.0092,1.0081,0.9987,0.9964,0.9924,0.9887,0.9855,0.977,0.9739,0.966,0.9651,0.9597,0.955,0.9476,0.9401,0.9345,0.9315,0.935,0.9306,0.933,0.9315,0.9317,0.9315,0.936,0.9362,0.9363,0.9365,0,1.0189,1.0152,1.011,1.0056,1.0021,0.9973,0.992,0.9905,0.9807,0.9777,0.9728,0.9692,0.9618,0.9565,0.9499,0.945,0.9391,0.9379,0.938,0.9404,0.9435,0.9418,0.93,0.9378,0.9376,0.9375,0.9375,0.9374,1.0271,1.0258,1.019,1.0145,1.0098,1.0051,1.0029,0.9968,0.9927,0.9862,0.9813,0.9768,0.9698,0.9602,0.9558,0.9519,0.9492,0.9494,0.9495,0.9496,0.9506,0.9442,0.9507,0.9506,0.9506,0.9505,0.9505,0,1.0363,1.0316,1.0276,1.0207,1.0172,1.0121,1.006,1.0034,0.9996,0.9937,0.9892,0.9835,0.9783,0.9704,0.9646,0.963,0.9601,0.9618,0.9618,0.9607,0.9533,0.9538,0.9642,0.9642,0.9642,0.9642,0.9642,0.9642,1.0408,1.0383,1.0338,1.0288,1.0239,1.0196,1.0166,1.0121,1.0074,1.0015,0.9973,0.9922,0.9854,0.979,0.9739,0.9717,0.9699,0.9724,0.9693,0.9625,0.9613,0.9601,0.9605,0.9721,0.9721,0.977,0.9771,0.9771]}]]